• In Germany
  • List of Countries
  • For 7 days
  • Water Temperature
  • Satellite Maps
  • Weather Map
  • Weather Widgets
  • user-avatar
    Login

    Hourly Weather Córdoba

    Today, 11 December, Monday

    Time Temperature Precipitation Wind Pressure Humidity
    00:00 +24°C° 0 mm 3 mps 724 mmHg 44%
    01:00 +22°C° 0 mm 3 mps 724 mmHg 46%
    02:00 +21°C° 0 mm 3 mps 724 mmHg 49%
    03:00 +20°C° 0 mm 3 mps 724 mmHg 50%
    04:00 +20°C° 0 mm 3 mps 724 mmHg 52%
    05:00 +19°C° 0 mm 2 mps 724 mmHg 53%
    06:00 +20°C° 0 mm 3 mps 725 mmHg 48%
    07:00 +21°C° 0 mm 3 mps 725 mmHg 42%
    08:00 +24°C° 0 mm 3 mps 725 mmHg 37%
    09:00 +26°C° 0 mm 3 mps 725 mmHg 33%
    10:00 +27°C° 0 mm 3 mps 725 mmHg 30%
    11:00 +29°C° 0 mm 3 mps 725 mmHg 26%
    12:00 +30°C° 0 mm 3 mps 724 mmHg 25%
    13:00 +31°C° 0 mm 3 mps 724 mmHg 24%
    14:00 +33°C° 0 mm 3 mps 723 mmHg 23%
    15:00 +33°C° 0 mm 3 mps 722 mmHg 23%
    16:00 +33°C° 0 mm 4 mps 722 mmHg 23%
    17:00 +33°C° 0 mm 4 mps 721 mmHg 24%
    18:00 +30°C° 0 mm 3 mps 721 mmHg 25%
    19:00 +28°C° 0 mm 3 mps 721 mmHg 27%
    20:00 +25°C° 0 mm 2 mps 721 mmHg 28%
    21:00 +25°C° 0 mm 2 mps 721 mmHg 27%
    22:00 +24°C° 0 mm 2 mps 722 mmHg 26%
    23:00 +23°C° 0 mm 2 mps 722 mmHg 25%

    Tomorrow, 12 December, Tuesday

    Time Temperature Precipitation Wind Pressure Humidity
    00:00 +23°C° 0 mm 2 mps 722 mmHg 24%
    01:00 +21°C° 0 mm 2 mps 722 mmHg 23%
    02:00 +22°C° 0 mm 1 mps 722 mmHg 22%
    03:00 +20°C° 0 mm 2 mps 721 mmHg 23%
    04:00 +20°C° 0 mm 2 mps 721 mmHg 24%
    05:00 +19°C° 0 mm 2 mps 721 mmHg 25%
    06:00 +21°C° 0 mm 3 mps 722 mmHg 24%
    07:00 +25°C° 0 mm 3 mps 722 mmHg 24%
    08:00 +27°C° 0 mm 4 mps 723 mmHg 24%
    09:00 +29°C° 0 mm 5 mps 723 mmHg 22%
    10:00 +32°C° 0 mm 5 mps 723 mmHg 21%
    11:00 +34°C° 0 mm 5 mps 722 mmHg 20%
    12:00 +35°C° 0 mm 5 mps 722 mmHg 19%
    13:00 +38°C° 0 mm 6 mps 721 mmHg 18%
    14:00 +39°C° 0 mm 6 mps 721 mmHg 18%
    15:00 +38°C° 0 mm 6 mps 720 mmHg 18%
    16:00 +38°C° 0 mm 6 mps 720 mmHg 19%
    17:00 +38°C° 0 mm 6 mps 719 mmHg 19%
    18:00 +34°C° 0 mm 5 mps 719 mmHg 21%
    19:00 +32°C° 0 mm 4 mps 719 mmHg 24%
    20:00 +28°C° 0 mm 3 mps 719 mmHg 27%
    21:00 +27°C° 0 mm 3 mps 719 mmHg 28%
    22:00 +26°C° 0 mm 3 mps 719 mmHg 29%
    23:00 +25°C° 0 mm 2 mps 720 mmHg 31%

    Day after tomorrow, 13 December, Wednesday

    Time Temperature Precipitation Wind Pressure Humidity
    00:00 +25°C° 0 mm 2 mps 719 mmHg 31%
    01:00 +25°C° 0 mm 2 mps 719 mmHg 32%
    02:00 +24°C° 0 mm 2 mps 718 mmHg 33%
    03:00 +24°C° 0 mm 2 mps 718 mmHg 34%
    04:00 +24°C° 0 mm 1 mps 718 mmHg 34%
    05:00 +23°C° 0 mm 1 mps 718 mmHg 35%
    06:00 +26°C° 0 mm 2 mps 719 mmHg 32%
    07:00 +28°C° 0 mm 2 mps 720 mmHg 29%
    08:00 +30°C° 0 mm 3 mps 720 mmHg 27%
    09:00 +34°C° 0 mm 4 mps 720 mmHg 24%
    10:00 +36°C° 0 mm 4 mps 721 mmHg 22%
    11:00 +39°C° 0 mm 5 mps 721 mmHg 20%
    12:00 +40°C° 0 mm 5 mps 720 mmHg 20%
    13:00 +41°C° 0 mm 5 mps 720 mmHg 19%
    14:00 +42°C° 0 mm 5 mps 720 mmHg 19%
    15:00 +41°C° 0.1 mm 4 mps 719 mmHg 22%
    16:00 +38°C° 0.1 mm 4 mps 719 mmHg 25%
    17:00 +37°C° 0.1 mm 4 mps 718 mmHg 28%
    18:00 +35°C° 0.1 mm 4 mps 719 mmHg 33%
    19:00 +33°C° 0.1 mm 5 mps 720 mmHg 38%
    20:00 +30°C° 0.1 mm 5 mps 720 mmHg 44%
    21:00 +28°C° 0.2 mm 4 mps 721 mmHg 54%
    22:00 +26°C° 0.2 mm 4 mps 722 mmHg 65%
    23:00 +24°C° 0.2 mm 3 mps 723 mmHg 76%

    14 December, Thursday

    Time Temperature Precipitation Wind Pressure Humidity
    00:00 +22°C° 0.4 mm 3 mps 723 mmHg 78%
    01:00 +22°C° 0.4 mm 3 mps 723 mmHg 81%
    02:00 +21°C° 0.4 mm 3 mps 723 mmHg 83%
    03:00 +21°C° 0.3 mm 3 mps 723 mmHg 82%
    04:00 +21°C° 0.3 mm 2 mps 723 mmHg 82%
    05:00 +20°C° 0.3 mm 2 mps 723 mmHg 81%
    06:00 +23°C° 0.1 mm 2 mps 724 mmHg 70%
    07:00 +25°C° 0.1 mm 2 mps 724 mmHg 59%
    08:00 +27°C° 0.1 mm 2 mps 725 mmHg 48%
    09:00 +29°C° 0 mm 3 mps 725 mmHg 40%
    10:00 +31°C° 0 mm 3 mps 725 mmHg 32%
    11:00 +34°C° 0 mm 3 mps 724 mmHg 23%
    12:00 +35°C° 0 mm 3 mps 724 mmHg 22%
    13:00 +36°C° 0 mm 3 mps 723 mmHg 20%
    14:00 +37°C° 0 mm 3 mps 722 mmHg 18%
    15:00 +37°C° 0 mm 3 mps 722 mmHg 18%
    16:00 +37°C° 0 mm 3 mps 722 mmHg 18%
    17:00 +37°C° 0 mm 3 mps 721 mmHg 18%
    18:00 +35°C° 0 mm 2 mps 721 mmHg 21%
    19:00 +31°C° 0 mm 2 mps 721 mmHg 24%
    20:00 +29°C° 0 mm 1 mps 721 mmHg 28%
    21:00 +28°C° 0 mm 1 mps 722 mmHg 29%
    22:00 +28°C° 0 mm 2 mps 722 mmHg 30%
    23:00 +27°C° 0 mm 2 mps 723 mmHg 31%

    15 December, Friday

    Time Temperature Precipitation Wind Pressure Humidity
    00:00 +27°C° 0 mm 2 mps 722 mmHg 32%
    01:00 +26°C° 0 mm 2 mps 722 mmHg 32%
    02:00 +26°C° 0 mm 2 mps 722 mmHg 33%
    03:00 +26°C° 0 mm 2 mps 722 mmHg 34%
    04:00 +25°C° 0 mm 2 mps 722 mmHg 35%
    05:00 +25°C° 0 mm 2 mps 722 mmHg 37%
    06:00 +27°C° 0 mm 2 mps 722 mmHg 35%
    07:00 +29°C° 0 mm 2 mps 723 mmHg 32%
    08:00 +31°C° 0 mm 2 mps 723 mmHg 30%
    09:00 +34°C° 0 mm 2 mps 723 mmHg 29%
    10:00 +36°C° 0 mm 3 mps 722 mmHg 27%
    11:00 +38°C° 0 mm 3 mps 722 mmHg 26%
    12:00 +40°C° 0 mm 4 mps 721 mmHg 26%
    13:00 +40°C° 0 mm 4 mps 720 mmHg 26%
    14:00 +41°C° 0 mm 4 mps 720 mmHg 26%
    15:00 +41°C° 0 mm 4 mps 719 mmHg 27%
    16:00 +41°C° 0 mm 5 mps 718 mmHg 27%
    17:00 +41°C° 0 mm 5 mps 718 mmHg 28%
    18:00 +38°C° 0 mm 4 mps 718 mmHg 32%
    19:00 +36°C° 0 mm 3 mps 718 mmHg 36%
    20:00 +34°C° 0 mm 2 mps 718 mmHg 41%
    21:00 +32°C° 0 mm 2 mps 718 mmHg 42%
    22:00 +32°C° 0 mm 2 mps 718 mmHg 43%
    23:00 +31°C° 0 mm 2 mps 718 mmHg 44%

    16 December, Saturday

    Time Temperature Precipitation Wind Pressure Humidity
    00:00 +31°C° 0 mm 3 mps 718 mmHg 44%
    01:00 +31°C° 0 mm 3 mps 717 mmHg 45%
    02:00 +30°C° 0 mm 3 mps 717 mmHg 45%
    03:00 +30°C° 0 mm 3 mps 717 mmHg 46%
    04:00 +30°C° 0 mm 3 mps 717 mmHg 47%
    05:00 +29°C° 0 mm 4 mps 717 mmHg 47%
    06:00 +32°C° 0 mm 6 mps 717 mmHg 44%
    07:00 +34°C° 0 mm 7 mps 717 mmHg 40%
    08:00 +37°C° 0 mm 9 mps 717 mmHg 36%
    09:00 +39°C° 0 mm 10 mps 717 mmHg 32%
    10:00 +42°C° 0 mm 10 mps 717 mmHg 29%
    11:00 +44°C° 0 mm 10 mps 716 mmHg 25%
    12:00 +45°C° 0 mm 9 mps 716 mmHg 24%
    13:00 +47°C° 0 mm 9 mps 715 mmHg 22%
    14:00 +46°C° 0 mm 8 mps 715 mmHg 20%
    15:00 +46°C° 0 mm 8 mps 714 mmHg 20%
    16:00 +46°C° 0 mm 7 mps 714 mmHg 20%
    17:00 +46°C° 0 mm 6 mps 714 mmHg 20%
    18:00 +43°C° 0 mm 5 mps 714 mmHg 23%
    19:00 +40°C° 0 mm 5 mps 715 mmHg 26%
    20:00 +37°C° 0 mm 4 mps 715 mmHg 30%
    21:00 +33°C° 2 mm 5 mps 717 mmHg 46%
    22:00 +28°C° 2 mm 6 mps 718 mmHg 63%
    23:00 +23°C° 2 mm 8 mps 720 mmHg 80%
    Show more